Weather History for Salt Lake City, UT

Change the Weather History Date:

Sunday, October 14, 2012

  Actual Average Record
Temperature  
Mean Temperature 57 °F 54 °F  
Max Temperature 68 °F 66 °F 81 °F (1958)
Min Temperature 45 °F 42 °F 28 °F (1954)
Degree Days  
Heating Degree Days 8 11  
Month to date heating degree days 100 127  
Since 1 July heating degree days 107 216  
Cooling Degree Days 0 0  
Month to date cooling degree days 7 5  
Year to date cooling degree days 1615 1158  
Growing Degree Days 6 (Base 50)    
Moisture  
Dew Point 41 °F    
Average Humidity 62    
Maximum Humidity 92    
Minimum Humidity 32    
Precipitation  
Precipitation 0.00 in 0.05 in 0.95 in (1968)
Month to date precipitation 0.50 0.66  
Year to date precipitation 8.59 12.38  
Snow  
Snow 0.00 in 0.00 in 0.10 in (1969)
Month to date snowfall 0.0 0.3  
Since 1 July snowfall 0.0 0.3  
Snow Depth 0.00 in    
Sea Level Pressure  
Sea Level Pressure 30.24 in    
Wind  
Wind Speed 6 mph (SE)    
Max Wind Speed 13 mph    
Max Gust Speed 15 mph    
Visibility 10 miles    
Events      
T = Trace of Precipitation, MM = Missing Value Source: NWS Daily Summary

Daily Weather History Graph

Daily Weather History Graph

Search for Another Location

Airport:

Trip Planner

Search our weather history database for the weather conditions in past years. The results will help you decide how hot, cold, wet, or windy it might be!

Date:

Astronomy

Oct. 14, 2012 Rise Set
Actual Time 7:38 AM MDT 6:48 PM MDT
Civil Twilight 7:11 AM MDT 7:15 PM MDT
Nautical Twilight 6:39 AM MDT 7:47 PM MDT
Astronomical Twilight 6:07 AM MDT 8:19 PM MDT
Moon 6:42 AM MDT (10/14) 6:10 PM MDT (10/14)
Length of Visible Light 12h 04m
Length of Day
11h 09m
Waning Crescent, 1% of the Moon is Illuminated
Oct 14
Waning Crescent
Oct 15
New
Oct 21
First Quarter
Oct 29
Full
Nov 6
Last Quarter

Hourly Weather History & Observations

Time (MDT) Temp. Windchill Dew Point Humidity Pressure Visibility Wind Dir Wind Speed Gust Speed Precip Events Conditions
12:53 AM 50.0 °F - 44.1 °F 80% 30.24 in 10.0 mi SSE 4.6 mph - N/A   Partly Cloudy
1:53 AM 48.9 °F - 44.1 °F 83% 30.24 in 10.0 mi SE 6.9 mph - N/A   Partly Cloudy
2:53 AM 48.0 °F - 43.0 °F 83% 30.25 in 10.0 mi SE 5.8 mph - N/A   Clear
3:53 AM 46.9 °F - 43.0 °F 86% 30.26 in 10.0 mi ESE 5.8 mph - N/A   Clear
4:53 AM 46.9 °F - 42.1 °F 83% 30.25 in 10.0 mi SSE 6.9 mph - N/A   Clear
5:53 AM 46.9 °F - 42.1 °F 83% 30.27 in 10.0 mi SSE 6.9 mph - N/A   Clear
6:53 AM 46.0 °F 41.4 °F 42.1 °F 86% 30.29 in 10.0 mi SE 9.2 mph - N/A   Clear
7:53 AM 46.0 °F 42.5 °F 42.1 °F 86% 30.30 in 10.0 mi SE 6.9 mph - N/A   Scattered Clouds
8:53 AM 50.0 °F - 44.1 °F 80% 30.32 in 10.0 mi SSE 6.9 mph - N/A   Partly Cloudy
9:53 AM 54.0 °F - 43.0 °F 66% 30.32 in 10.0 mi SE 10.4 mph - N/A   Scattered Clouds
10:53 AM 57.9 °F - 43.0 °F 58% 30.32 in 10.0 mi SSE 5.8 mph - N/A   Scattered Clouds
11:53 AM 62.1 °F - 43.0 °F 50% 30.29 in 10.0 mi SSE 5.8 mph - N/A   Scattered Clouds
12:53 PM 64.0 °F - 39.9 °F 41% 30.28 in 10.0 mi Variable 3.5 mph - N/A   Scattered Clouds
1:53 PM 66.0 °F - 39.9 °F 38% 30.25 in 10.0 mi North 5.8 mph - N/A   Scattered Clouds
2:53 PM 68.0 °F - 37.0 °F 32% 30.23 in 10.0 mi NNW 8.1 mph - N/A   Scattered Clouds
3:53 PM 68.0 °F - 37.9 °F 33% 30.22 in 10.0 mi NNE 5.8 mph - N/A   Scattered Clouds
4:53 PM 66.9 °F - 37.9 °F 34% 30.20 in 10.0 mi NNE 4.6 mph - N/A   Scattered Clouds
5:53 PM 66.0 °F - 39.0 °F 37% 30.18 in 10.0 mi Variable 3.5 mph - N/A   Mostly Cloudy
6:53 PM 60.1 °F - 41.0 °F 49% 30.18 in 10.0 mi North 6.9 mph - N/A   Scattered Clouds
7:53 PM 57.9 °F - 41.0 °F 53% 30.18 in 10.0 mi Calm Calm - N/A   Partly Cloudy
8:53 PM 55.0 °F - 42.1 °F 62% 30.18 in 10.0 mi SSW 4.6 mph - N/A   Clear
9:53 PM 54.0 °F - 42.1 °F 64% 30.17 in 10.0 mi SSE 5.8 mph - N/A   Clear
10:53 PM 53.1 °F - 41.0 °F 64% 30.16 in 10.0 mi SE 8.1 mph - N/A   Clear
11:53 PM 52.0 °F - 41.0 °F 66% 30.14 in 10.0 mi SE 8.1 mph - N/A   Clear